Regional Weather Roundup
Issued by NWS Upton, NY

Current Version | Previous Version | Text Only | Print | Product List | Glossary On
Versions: 1 2 3 4 5 6 7 8 9 10 11 12 13 14 15 16 17 18 19 20 21 22 23 24 25 26 27 28 29
000
ASUS41 KOKX 240305
RWROKX

REGIONAL WEATHER ROUNDUP
NATIONAL WEATHER SERVICE NEW YORK NY
1100 PM EDT WED APR 23 2014

NOTE: "FAIR" INDICATES FEW OR NO CLOUDS BELOW 12,000 FEET WITH NO
SIGNIFICANT WEATHER AND/OR OBSTRUCTIONS TO VISIBILITY.

NYZ071-072-176-178-NJZ106-104-240400-
NEW YORK CITY METRO AREA


CITY           SKY/WX    TMP DP  RH WIND       PRES   REMARKS
CENTRAL PARK   MOCLDY    46  28  49 NW14G26   29.84S
LAGUARDIA APRT MOCLDY    46  30  53 NW20G30   29.81R
KENNEDY INTL   MOCLDY    47  28  47 NW25G36   29.81S
NEWARK/LIBERTY CLOUDY    46  29  51 NW22G33   29.84R
TETERBORO      CLOUDY    47  29  49 NW20G29   29.82R
$$

NYZ177-179-078>081-240400-
LONG ISLAND NEW YORK

CITY           SKY/WX    TMP DP  RH WIND       PRES   REMARKS
FARMINGDALE    CLOUDY    46  30  53 NW14G22   29.78R
ISLIP          MOCLDY    47  29  49 NW15G25   29.74R
SHIRLEY        CLOUDY    47  30  51 NW21G30   29.76R
WESTHAMPTON    PTCLDY    47  29  49 NW18G33   29.73R
MONTAUK POINT    N/A     47  35  63 W16G26    29.69R
$$

NYZ052-065-067-240400-
HUDSON VALLEY

CITY           SKY/WX    TMP DP  RH WIND       PRES   REMARKS
WHITE PLAINS   MOCLDY    44  29  55 NW15G22   29.77R
NEWBURGH       MOCLDY    45  28  53 W14       29.82R
MONTGOMERY     CLOUDY    43  28  55 NW8       29.83R
POUGHKEEPSIE   CLOUDY    47  27  45 NW14G20   29.80R
ALBANY         MOCLDY    43  30  60 W15       29.80R
$$

NJZ001-105-106-008-010-013-015-019>022-104-240400-
NEW JERSEY

CITY           SKY/WX    TMP DP  RH WIND       PRES   REMARKS
NEWARK/LIBERTY CLOUDY    46  29  51 NW22G33   29.84R
TETERBORO      CLOUDY    47  29  49 NW20G29   29.82R
CALDWELL       PTCLDY    43  29  57 N8G16     29.86R
MORRISTOWN     PTCLDY    46  28  49 NW8G21    29.86R
SOMERVILLE     CLEAR     44  27  51 NW12G24   29.86R
LINDEN         FAIR      47  29  51 NW16G24   29.86R
SUSSEX         MOCLDY    44  29  55 VRB7      29.86R
ANDOVER          N/A     41  29  62 N8G18     29.86R
TRENTON        CLEAR     45  25  45 NW13G24   29.88R
MILLVILLE      CLEAR     48  32  53 NW16G23   29.89R
ATLANTIC CITY  CLEAR     48  30  49 N23       29.86R
WRIGHTSTOWN    PTCLDY    45  26  48 NW14G30   29.87R
TOMS RIVER     CLOUDY    45  27  49 NW12G23   29.87R
BELMAR         PTCLDY    45  27  49 NW22G31   29.84S
$$

PAZ047>061-062-071-240400-
EASTERN PENNSYLVANIA

CITY           SKY/WX    TMP DP  RH WIND       PRES   REMARKS
PHILADELPHIA   PTCLDY    48  24  39 N14G26    29.92R
ALLENTOWN      CLEAR     44  23  43 NW10G18   29.91S
SCRANTON       MOCLDY    40  25  55 W13G18    29.90S WCI  32
$$

CTZ002-004>006-009-010-012-RIZ004-006-007-MAZ004-011-015-240400-
SOUTHERN NEW ENGLAND
 IN CT

CITY           SKY/WX    TMP DP  RH WIND       PRES   REMARKS
BRADLEY INTL   MOCLDY    46  31  55 NW17G32   29.70R
HARTFORD       CLOUDY    46  31  55 NW14G23   29.72R
DANBURY        CLOUDY    45  26  47 NW9G20    29.77R
WTRBRY/OXFORD  CLOUDY    43  27  52 N14G25    29.76S
BRIDGEPORT     CLOUDY    49  29  46 NW17G29   29.75R
MERIDEN        CLOUDY    46  30  53 NW15G26   29.73R
NEW HAVEN      CLOUDY    48  31  51 NW10G21   29.74R
CHESTER        MOCLDY    45  32  61 NW16G28   29.69R
GROTON         CLOUDY    48  33  56 NW20G28   29.66R
WILLIMANTIC    CLOUDY    47  32  56 NW9G22    29.67R

 IN RI

CITY           SKY/WX    TMP DP  RH WIND       PRES   REMARKS
PROVIDENCE     CLOUDY    48  30  49 NW18G32   29.62R
BLOCK ISLAND   CLOUDY    46  34  61 NW14G21   29.64R
WESTERLY       CLOUDY    48  33  56 NW13G25   29.66R

 IN MA

CITY           SKY/WX    TMP DP  RH WIND       PRES   REMARKS
BOSTON         MOCLDY    48  31  51 NW15G35   29.59R
WORCESTER      MOCLDY    43  28  55 NW20G32   29.63R
WESTFIELD      CLOUDY    47  28  47 N23G31    29.69S
PROVINCETOWN   CLOUDY    45  37  76 MISG      29.54R
NANTUCKET      CLOUDY    49  36  61 NW20G29   29.53R
$$

ANZ330-335-338-340-345-350-353-355-240400-
COASTAL MARINE OBSERVATIONS


STATION/POSITION TIME  SKY/WX   TEMP    WIND        PRES    VSBY  WAVE
                                AIR SEA DIR/SP/G                  HT/PER
                 (UTC)          (F)     (DEG/KT/KT) (MB)    (MI)  (FT/S)
NY HARB ENTRANCE 0300            46 45  VRB 25/ 31  1008.5
4S FIRE IS       0200               45                N/A           4/ 5
23SW MTP         0300            46 43  300/ 23/ 27 1004.8          5/ 5
HUDSON CANYON    0200            47 44  320/ 29/ 35 1006.0          6/ 6
EXECUTION ROCKS  0300            46 45  320/ 19/ 27   N/A
WESTERN LI SOUND 0300            47     300/ 14/ 17   N/A           1/ 3
CENTRAL LI SOUND 0200            46 43  290/ 21/ 27   N/A           3/ 4
EASTERN LI SOUND NOT AVBL
ROBBINS REEF     0300            46     320/ 22/ 28   N/A
$$


>>>>>>>>>>>>>>>>>>>>>>>>>>>> KEY <<<<<<<<<<<<<<<<<<<<<<<<<<<
>                                                          <
>     SKY/WX - SKY CONDITION/PRESENT WEATHER               <
>     TMP    - TEMPERATURE IN FAHRENHEIT                   <
>     DP     - DEWPOINT IN FAHRENHEIT                      <
>     RH     - RELATIVE HUMIDITY IN PERCENT                <
>     WIND   - DIRECTION AND SPEED IN MPH                  <
>     PRES   - MEAN SEA LEVEL PRESSURE IN INCHES OF HG     <
>     WCI    - WIND CHILL INDEX                            <
>     VSB    - VISIBILITY IN MILES                         <
>     HX     - HEAT INDEX                                  <
>     TC     - TEMPERATURE IN CELSIUS                      <
>     VRB    - VARIABLE WIND DIRECTION                     <
>                                                          <
>>>>>>>>>>>>>>>>>>>>>>>>>>>> KEY <<<<<<<<<<<<<<<<<<<<<<<<<<<





USA.gov is the U.S. government's official web portal to all federal, state and local government web resources and services.